Regional Weather Roundup
Issued by NWS

Home | Current Version | Previous Version | Text Only | Print | Product List | Glossary Off
Versions: 1 2 3 4 5 6 7 8 9 10 11 12 13 14 15 16 17 18 19 20 21 22 23 24 25 26 27 28 29 30 31 32 33 34 35 36 37 38 39 40 41 42 43 44 45 46 47 48 49 50

000
ASUS43 KMKX 201321
RWRWI

WISCONSIN REGIONAL WEATHER ROUNDUP
NATIONAL WEATHER SERVICE MILWAUKEE/SULLIVAN WI
700 AM CST MON FEB 20 2017

NOTE: "FAIR" INDICATES FEW OR NO CLOUDS BELOW 12,000 FEET WITH NO
SIGNIFICANT WEATHER AND/OR OBSTRUCTIONS TO VISIBILITY.

WIZ001-002-006>008-014>016-023>028-201400-
NORTHWEST WISCONSIN

CITY           SKY/WX    TMP DP  RH WIND       PRES   REMARKS
SUPERIOR ARPT  CLOUDY    36  34  93 E13       29.91S WCI  27
ASHLAND        CLOUDY    46  35  65 SE8       29.93F
HAYWARD        CLOUDY    47  37  68 SE12G23   29.91F
SIREN          CLOUDY    48  38  67 SE9       29.85S
CUMBERLAND     CLOUDY    41  34  75 SE13      29.90R
RICE LAKE      CLOUDY    44  36  74 SE16      29.92S
CHETEK         CLOUDY    42  36  78 SE10      29.93S
LADYSMITH      CLOUDY    43  35  73 SE9       29.97S
EAU CLAIRE     MOCLDY    45  37  73 E9        29.93S
MENOMONIE      MOCLDY    42  37  83 E8        29.89F
NEW RICHMOND   CLOUDY    46  39  76 SE7       29.86S
OSCEOLA        CLOUDY    48  40  75 SE10      29.87S
$$

WIZ003>005-009-010-017-018-201400-
NORTH CENTRAL WISCONSIN

CITY           SKY/WX    TMP DP  RH WIND       PRES   REMARKS
MANITOWISH WTR CLOUDY    40  30  67 SE8       30.02S WCI  35
ARBOR VITAE    PTCLDY    42  31  66 SE10      30.03S
WOODRUFF       PTCLDY    42  31  66 SE10      30.03S
RHINELANDER    PTCLDY    38  30  73 E10       30.07R WCI  31
EAGLE RIVER    PTCLDY    37  28  70 SE9       30.06R WCI  30
LAND O LAKES   CLOUDY    38  30  71 SE10      30.08S WCI  31
PHILLIPS       CLOUDY    40  33  74 SE7       29.98S
TOMAHAWK       CLOUDY    38  29  69 E6        30.04F WCI  34
MEDFORD        PTCLDY    38  31  76 SE9G16    30.00F WCI  32
MERRILL        NOT AVBL
$$

WIZ029-030-035-036-043>047-201400-
CENTRAL WISCONSIN

CITY           SKY/WX    TMP DP  RH WIND       PRES   REMARKS
WAUSAU         PTCLDY    37  29  72 E12       30.05S WCI  29
MOSINEE        CLOUDY    37  30  75 E9        30.06S WCI  31
MARSHFIELD     MOCLDY    40  33  76 E9        30.01S WCI  34
STEVENS POINT  CLOUDY    36  29  77 E7        30.07R WCI  30
WAUPACA        CLOUDY    37  31  80 CALM      30.10R
WAUTOMA        CLOUDY    36  30  79 CALM      30.08
WISC RAPIDS    CLOUDY    43  35  73 SE7       30.05S
CAMP DOUGLAS   MOCLDY    41  37  84 SE7       30.01S
$$

WIZ011>013-019>022-031-037>040-048>050-201400-
NORTHEAST WISCONSIN

CITY           SKY/WX    TMP DP  RH WIND       PRES   REMARKS
ANTIGO         PTCLDY    35  30  82 SE10      30.10R WCI  27
SHAWANO        CLOUDY    34  31  90 N6        30.13S WCI  28
OCONTO         PTCLDY    33  31  91 CALM      30.15R
STURGEON BAY   CLOUDY    36  33  89 E10       30.16F WCI  28
GREEN BAY      CLOUDY    39  32  76 SE6       30.14R WCI  35
MANITOWOC      PTCLDY    35  32  88 MISG      30.16S
APPLETON       MOCLDY    39  27  60 E7        30.08S WCI  34
CLINTONVILLE   PTCLDY    34  30  86 NE6       30.11R WCI  29
OSHKOSH        PTCLDY    42  30  62 SE10      30.09R
$$

WIZ032>034-041-042-053>061-201400-
SOUTHWEST WISCONSIN

CITY           SKY/WX    TMP DP  RH WIND       PRES   REMARKS
LA CROSSE      CLOUDY    53  45  74 SE9       29.95S
SPARTA         CLOUDY    49  44  85 SE5       29.98F
VIROQUA        CLOUDY    46  43  89 SE13      29.98S
BOSCOBEL       CLOUDY    49  43  80 VRB3      30.01R
PRAIRIE DU CHI MOCLDY    48  43  82 E9        29.97F
PLATTEVILLE    CLOUDY    43  43 100 E12       30.02S
$$

WIZ056-057-062-063-064-067-068-201400-
SOUTH CENTRAL WISCONSIN

CITY           SKY/WX    TMP DP  RH WIND       PRES   REMARKS
REEDSBURG      PTCLDY    48  45  90 SE3       30.03S
BARABOO/DELLS  PTCLDY    46  40  81 SE5       30.04S
LONE ROCK      CLOUDY    45  41  86 E12       30.03F FOG
MINERAL POINT  PTCLDY    48  46  93 SE10      30.02F FOG
MADISON        MOCLDY    44  40  85 SE5       30.06S
MIDDLETON      PTCLDY    43  41  91 E7        30.06F
WATERTOWN      PTCLDY    40  37  87 E7        30.10R
MONROE         PTCLDY    45  43  93 SE9       30.05F FOG
JANESVILLE     PTCLDY    43  43 100 SE8       30.07F FOG
$$

WIZ051-052-058>065-066-070>072-201400-
SOUTHEAST WISCONSIN

CITY           SKY/WX    TMP DP  RH WIND       PRES   REMARKS
MILWAUKEE      CLOUDY    37  31  78 SE3       30.14R
WAUKESHA       PTCLDY    34  30  86 CALM      30.13S
MILWAUKEE/TIMM CLOUDY    32  30  93 CALM      30.14R
RACINE         CLOUDY    41  33  73 S6        30.16R
KENOSHA        CLOUDY    35  33  92 CALM      30.14R FOG
FOND DU LAC    CLOUDY    42  31  64 SE9       30.10R
SHEBOYGAN      CLOUDY    38  32  79 SE7       30.14S WCI  33
WEST BEND      PTCLDY    32  30  93 CALM      30.14R
JUNEAU         MOCLDY    41  37  85 E10       30.10R
$$

LSZ147-162-201400-
LAKE SUPERIOR

STATION/POSITION TIME  TEMP    WIND        PRES    WAVE
                       AIR SEA DIR/SP/G            HT/PER
                 (UTC) (F)     (DEG/KT/KT) (MB)    (FT/S)
DEVILS ISLAND    1300   47     160/  7/  9 1014.2S
PORT WING        1240   35      40/  7/ 10 1012.9S
SAXON HARBOR     1240   48     170/ 11/ 20 1013.5S
$$

LMZ867-665-643>646-201400-
LAKE MICHIGAN

STATION/POSITION TIME  TEMP    WIND        PRES    WAVE
                       AIR SEA DIR/SP/G            HT/PER
                 (UTC) (F)     (DEG/KT/KT) (MB)    (FT/S)
CHAMBERS ISLAND  1240   34      70/  3/  5 1021.3F
NORTHPORT PIER   1240   35     130/  2/  5 1022.4R
SISTER BAY       1205   37     150/  9/ 12   N/A
ALGOMA LAKESHORE 1240           90/  6/  7   N/A
KEWAUNEE LAKESHO 1254   35      50/  3/  5 1020.7F
SHEBOYGAN LAKESH 1300   39     150/  6/  6 1021.3R
PORT WASHINGTON  1240   39      50/  4/  5 1021.7S
MILWAUKEE LAKESH 1250   39     210/  1/  2   N/A
KENOSHA   LAKESH 1300   41     170/  7/  8 1020.7
$$

TC  - TEMPERATURE IN CELSIUS
VSB - VISIBILITY IN STATUTE MILES
WCI - WIND CHILL INDEX
HX  - HEAT INDEX




USA.gov is the U.S. government's official web portal to all federal, state and local government web resources and services.